Location: Unspecified
(0.0000°N, 0.0000°E)
Time: 02:47:24
(UTC+00:00)

Vanguard 1 - Pass Details

Date: 13 December 2023
Orbit: 653 x 3826 km, 34.3° (Epoch: 22 February)

Event Time Altitude Azimuth Distance (km) Brightness Sun altitude
Rises 02:37:18 0° 281° (WNW) 7,804 - -44.1°
Reaches altitude 10° 02:44:18 10° 272° (W) 6,471 - -42.6°
Exits shadow 02:56:30 27° 236° (SW) 4,329 13.0 -40.0°
Maximum altitude 02:59:34 28° 220° (SW) 3,978 12.9 -39.3°
Drops below altitude 10° 03:09:39 10° 164° (SSE) 4,196 13.7 -37.2°
Sets 03:13:03 0° 152° (SSE) 4,774 14.3 -36.4°
